Lid_Strength_Index
-1 1 1 2 8 9 11 10 9 8 8 6 5 6 7 7 8 10 2 1 0 0 -1 -1 -1 -1 -1 -1 -1 -1 -1 -1 -1 -1 -1 -1 -1 -1 -1 -1 -1 -1 -1 -1 -1 -1 -1 -1 -1
1 2 2 6 10 12 11 8 9 8 8 7 5 5 7 8 5 4 3 0 -0 -0 -1 -1 -1 -1 -1 -1 -1 -1 -1 -1 -1 -1 -1 -1 -1 -1 -1 -1 -1 -1 -1 -1 -1 -1 -1 -1 -1
2 4 5 8 10 12 11 8 8 8 7 7 6 5 6 7 4 3 1 0 -0 -0 -1 -1 -1 -1 -1 -1 -1 -1 -1 -1 -1 -1 -1 -1 -1 -1 -1 -1 -1 -1 -1 -1 -1 -1 -1 -1 -1
4 4 7 9 11 10 8 8 8 8 7 5 5 7 5 3 3 2 0 0 0 -0 -1 -1 -1 -1 -1 -1 -1 -1 -1 -1 -1 -1 -1 -1 -1 -1 -1 -1 -1 -1 -1 -1 -1 -1 -1 -1 -1
5 6 9 11 11 9 9 8 8 8 7 6 6 7 6 3 1 1 1 0 1 0 -1 -1 -1 -1 -1 -1 -1 -1 -1 -1 -1 -1 -1 -1 -1 -1 -1 -1 -1 -1 -1 -1 -1 -1 -1 -1 -1
6 8 10 11 11 9 8 8 8 7 7 7 6 7 6 2 2 1 0 0 -0 0 -0 -1 -1 -1 -1 -1 -1 -1 -1 -1 -1 -1 -1 -1 -1 -1 -1 -1 -1 -1 -1 -1 -1 -1 -1 -1 -1
7 9 11 11 11 10 8 8 8 8 7 7 5 8 5 3 2 1 1 0 0 -0 -0 -1 -1 -1 -1 -1 -1 -1 -1 -1 -1 -1 -1 -1 -1 -1 -1 -1 -1 -1 -1 -1 -1 -1 -1 -1 -1
7 9 11 11 11 10 8 8 7 7 7 6 3 7 6 3 4 1 1 1 0 0 -0 -0 -1 -1 -1 -1 -1 -1 -1 -1 -1 -1 -1 -1 -1 -1 -1 -1 -1 -1 -1 -1 -1 -1 -1 -1 -1
7 10 12 11 11 9 8 8 7 6 7 7 6 6 3 5 1 2 3 2 1 1 0 -0 -0 -1 -1 -1 -1 -1 -1 -1 -1 -1 -1 -1 -1 -1 -1 -1 -1 -1 -1 -1 -1 -1 -1 -2 -2
8 11 11 9 9 9 8 8 7 7 7 7 7 5 5 5 5 4 3 3 3 2 1 -0 -0 -0 -0 -1 -1 -1 -1 -1 -1 -1 -1 -1 -1 -1 -1 -1 -1 -1 -1 -1 -1 -1 -1 -1 -1
9 10 9 8 7 7 8 7 7 7 8 7 7 6 5 5 5 5 5 4 2 2 3 3 2 -0 -0 -0 -1 -1 -1 -1 -1 -1 -1 -1 -1 -1 -1 -1 -1 -1 -1 -1 -1 -1 -1 -1 -1
9 8 8 7 7 8 8 7 7 7 7 6 6 6 6 6 6 6 4 2 2 2 1 1 1 1 1 -0 -0 -0 -0 -1 -1 -1 -1 -1 -0 -0 -0 -1 -1 -1 -1 -1 -1 -1 -1 -1 -1
9 9 8 8 8 8 8 8 8 7 7 7 7 6 5 6 5 3 2 2 2 2 2 1 -0 1 2 2 1 1 0 0 -1 -1 -1 -1 -0 -0 -0 -0 -1 -1 -1 -1 -0 -0 -0 -0 -1
9 9 9 8 8 8 8 8 7 7 7 7 8 5 4 4 4 4 5 5 5 4 4 2 2 1 -0 0 1 2 1 0 -0 -1 -1 -1 -1 -0 -0 -0 -0 -0 -1 -1 -1 -0 -0 -0 -0
8 9 9 8 8 8 8 9 8 8 8 8 8 5 6 7 7 7 7 8 8 7 6 6 5 4 3 1 0 1 1 0 -0 -1 -1 -1 -1 -0 -0 -0 0 -0 -1 -1 -1 -0 -0 -0 -0
10 10 11 9 8 9 8 11 8 8 8 9 8 7 9 10 10 9 9 8 8 8 7 7 6 6 5 4 2 0 -1 -1 -1 -1 0 -0 -0 -1 0 0 0 -1 -0 -0 -0 0 1 1 0
11 13 12 10 9 10 10 12 9 8 9 9 8 9 11 11 10 9 9 8 8 8 7 7 6 6 6 5 4 2 -0 -0 -1 -1 -1 -1 0 -0 1 1 -0 -1 -0 0 0 1 1 1 1
14 13 12 12 10 11 12 12 10 10 9 10 12 12 12 11 10 9 8 8 7 7 7 7 6 6 6 5 5 2 1 1 -1 -1 -1 -1 -1 -1 -0 -0 -0 -0 0 1 1 1 1 1 1
11 12 13 12 11 13 12 13 12 12 10 13 13 12 11 11 9 8 8 7 7 6 6 6 6 6 6 6 7 4 4 2 -0 -0 -1 -1 -1 -1 -0 -0 -0 0 1 1 1 1 1 2 1
13 14 15 14 12 13 13 13 13 14 14 13 12 12 11 10 9 8 7 7 7 7 6 6 6 5 5 5 5 4 3 2 1 -0 0 -1 -1 -1 0 -0 0 0 1 1 1 1 2 2 1
14 16 16 15 14 13 14 15 14 14 13 12 12 11 11 10 10 9 8 7 7 7 6 5 5 5 4 4 4 5 3 1 1 1 1 -0 -0 -0 -0 0 0 0 1 2 1 1 1 3 2
16 14 14 15 15 18 14 19 15 15 14 13 12 11 10 10 9 8 7 7 6 5 5 5 4 4 3 3 3 4 5 3 2 1 1 0 -0 -0 -0 -0 0 0 0 1 1 1 1 1 3
14 13 14 14 16 17 17 17 16 14 14 13 12 11 10 8 8 7 6 6 5 4 4 3 3 2 2 2 2 3 3 2 1 1 1 0 0 -0 -0 -0 0 1 1 1 1 1 1 1 2
13 15 15 17 17 20 18 18 17 15 13 12 11 9 9 8 7 6 4 4 4 3 3 3 2 2 2 2 2 2 2 2 2 2 1 1 1 0 0 -0 0 0 0 1 2 1 1 1 1
14 17 20 21 20 21 17 18 16 14 12 10 9 9 7 6 6 5 4 4 4 3 2 2 2 3 3 3 3 3 3 2 3 2 2 1 1 1 1 0 1 1 0 1 1 2 2 1 1
16 17 20 23 22 20 16 20 16 11 9 8 7 7 6 6 5 5 4 3 4 3 2 2 2 3 3 3 3 3 3 3 3 3 3 2 1 1 1 1 0 1 0 1 1 1 1 1 1
16 18 15 18 18 20 17 15 14 10 8 8 8 7 6 5 5 5 4 3 4 3 2 2 2 3 3 3 3 4 4 4 4 4 3 2 2 1 0 0 1 1 1 1 1 1 1 1 1
15 14 18 17 22 22 18 17 16 11 11 10 9 7 6 5 5 5 4 4 3 3 2 1 1 2 3 3 3 4 4 4 5 5 4 3 3 2 1 1 1 1 1 1 1 1 1 1 1
16 16 15 15 16 19 20 18 12 10 9 10 8 7 6 6 5 4 4 4 4 4 3 2 2 2 3 3 4 4 5 5 6 6 5 4 2 2 1 1 1 1 1 1 1 1 1 2 2
14 16 15 16 18 16 17 18 9 9 9 8 7 7 7 5 4 4 5 4 4 4 4 4 3 2 3 3 4 5 5 5 6 6 5 4 3 2 1 1 1 1 2 2 2 2 2 3 3